Chester, CT

2:16 AM EST on November 19, 2019 (GMT -0500)
Chester

Weather History for KSNC - October, 2019

Change the Weather History Date:

Saturday, October 19, 2019

  Actual Average (KHVN) Record (KHVN)
Temperature  
Mean Temperature 48 °F -  
Max Temperature 60 °F 58 °F 81 °F (2016)
Min Temperature 35 °F 43 °F 23 °F (2015)
Degree Days  
Heating Degree Days 18    
Moisture  
Dew Point 37 °F    
Average Humidity 68    
Maximum Humidity 93    
Minimum Humidity 39    
Precipitation  
Precipitation 0.00 in - - ()
Sea Level Pressure  
Sea Level Pressure 30.02 in    
Wind  
Wind Speed 3 mph ()    
Max Wind Speed 12 mph    
Max Gust Speed 13 mph    
Visibility 10.0 miles    
Events      
Averages and records for this station are not official NWS values.
T = Trace of Precipitation, MM = Missing Value Source: Averaged Metar Reports

Daily Weather History Graph

Daily Weather History Graph

Search for Another Location

Airport or City:

Astronomy

Oct. 19, 2019 Rise Set
Actual Time 7:06 AM EDT 6:03 PM EDT
Civil Twilight 6:38 AM EDT 6:31 PM EDT
Nautical Twilight 6:05 AM EDT 7:03 PM EDT
Astronomical Twilight 5:33 AM EDT 7:35 PM EDT
Moon 10:06 PM EDT 12:38 PM EDT
Length of Visible Light 11h 53m
Length of Day
10h 57m
Waning Gibbous, 70% of the Moon is Illuminated
Oct 19
Waning Gibbous
Oct 21
Last Quarter
Oct 27
New
Nov 4
First Quarter
Nov 12
Full

Hourly Weather History & Observations

Time (EDT) Temp. Windchill Dew Point Humidity Pressure Visibility Wind Dir Wind Speed Gust Speed Precip Events Conditions
12:15 AM 46.4 °F 42.9 °F 35.6 °F 66% 29.97 in 10.0 mi NW 6.9 mph 12.7 mph N/A   Overcast
12:35 AM 46.4 °F 43.5 °F 35.6 °F 66% 29.97 in 10.0 mi NW 5.8 mph - N/A   Overcast
12:55 AM 46.4 °F 44.3 °F 35.6 °F 66% 29.98 in 10.0 mi WNW 4.6 mph - N/A   Overcast
1:15 AM 44.6 °F 42.2 °F 35.6 °F 71% 29.98 in 10.0 mi NW 4.6 mph - N/A   Overcast
1:35 AM 44.6 °F 43.1 °F 35.6 °F 71% 29.99 in 10.0 mi NW 3.5 mph - N/A   Overcast
1:55 AM 42.8 °F 41.1 °F 35.6 °F 76% 30.00 in 10.0 mi NW 3.5 mph - N/A   Overcast
2:15 AM 42.8 °F 40.1 °F 35.6 °F 76% 30.00 in 10.0 mi NW 4.6 mph - N/A   Scattered Clouds
2:35 AM 41.0 °F 38.0 °F 35.6 °F 81% 30.00 in 10.0 mi NW 4.6 mph - N/A   Clear
2:55 AM 41.0 °F - 35.6 °F 81% 30.00 in 10.0 mi Calm Calm - N/A   Clear
3:15 AM 41.0 °F - 35.6 °F 81% 30.00 in 10.0 mi Calm Calm - N/A   Clear
3:35 AM 41.0 °F - 35.6 °F 81% 29.99 in 10.0 mi Calm Calm - N/A   Clear
3:55 AM 39.2 °F - 35.6 °F 87% 30.00 in 10.0 mi Calm Calm - N/A   Clear
4:15 AM 39.2 °F - 35.6 °F 87% 30.00 in 10.0 mi Calm Calm - N/A   Clear
4:35 AM 39.2 °F - 35.6 °F 87% 30.01 in 10.0 mi Calm Calm - N/A   Clear
4:55 AM 37.4 °F - 35.6 °F 93% 30.01 in 10.0 mi Calm Calm - N/A   Clear
5:15 AM 37.4 °F - 35.6 °F 93% 30.01 in 10.0 mi Calm Calm - N/A   Clear
5:35 AM 35.6 °F 31.7 °F 33.8 °F 93% 30.01 in 10.0 mi West 4.6 mph - N/A   Clear
5:55 AM 37.4 °F - 35.6 °F 93% 30.01 in 10.0 mi Calm Calm - N/A   Clear
6:15 AM 35.6 °F - 33.8 °F 93% 30.01 in 10.0 mi Calm Calm - N/A   Clear
6:35 AM 35.6 °F - 33.8 °F 93% 30.02 in 10.0 mi Calm Calm - N/A   Clear
6:55 AM 35.6 °F - 33.8 °F 93% 30.02 in 10.0 mi Calm Calm - N/A   Clear
7:15 AM 35.6 °F - 33.8 °F 93% 30.02 in 10.0 mi Calm Calm - N/A   Clear
7:35 AM 37.4 °F 34.9 °F 35.6 °F 93% 30.02 in 10.0 mi West 3.5 mph - N/A   Clear
7:55 AM 39.2 °F 35.9 °F 35.6 °F 87% 30.04 in 10.0 mi WSW 4.6 mph - N/A   Clear
8:15 AM 42.8 °F - 35.6 °F 76% 30.05 in 10.0 mi Calm Calm - N/A   Clear
8:35 AM 44.6 °F - 35.6 °F 71% 30.05 in 10.0 mi Calm Calm - N/A   Clear
8:55 AM 44.6 °F 42.2 °F 35.6 °F 71% 30.05 in 10.0 mi West 4.6 mph - N/A   Clear
9:15 AM 48.2 °F - 35.6 °F 62% 30.05 in 10.0 mi Variable 4.6 mph - N/A   Clear
9:35 AM 48.2 °F - 35.6 °F 62% 30.05 in 10.0 mi Variable 3.5 mph - N/A   Clear
9:55 AM 50.0 °F - 35.6 °F 58% 30.05 in 10.0 mi Calm Calm - N/A   Clear
10:15 AM 51.8 °F - 35.6 °F 54% 30.05 in 10.0 mi Variable 5.8 mph - N/A   Clear
10:35 AM 53.6 °F - 35.6 °F 51% 30.05 in 10.0 mi Variable 6.9 mph - N/A   Clear
10:55 AM 53.6 °F - 33.8 °F 47% 30.05 in 10.0 mi NNW 11.5 mph - N/A   Clear
11:15 AM 53.6 °F - 35.6 °F 51% 30.05 in 10.0 mi Variable 4.6 mph - N/A   Clear
11:35 AM 53.6 °F - 35.6 °F 51% 30.05 in 10.0 mi North 3.5 mph - N/A   Clear
11:55 AM 55.4 °F - 35.6 °F 47% 30.05 in 10.0 mi Variable 4.6 mph - N/A   Clear
12:15 PM 55.4 °F - 35.6 °F 47% 30.04 in 10.0 mi Variable 5.8 mph 11.5 mph N/A   Clear
12:35 PM 55.4 °F - 35.6 °F 47% 30.04 in 10.0 mi Variable 5.8 mph - N/A   Clear
12:55 PM 55.4 °F - 35.6 °F 47% 30.03 in 10.0 mi Variable 4.6 mph - N/A   Clear
1:15 PM 57.2 °F - 33.8 °F 41% 30.02 in 10.0 mi NW 8.1 mph - N/A   Clear
1:35 PM 59.0 °F - 35.6 °F 42% 30.02 in 10.0 mi Variable 4.6 mph - N/A   Clear
1:55 PM 59.0 °F - 35.6 °F 42% 30.01 in 10.0 mi Calm Calm - N/A   Clear
2:15 PM 60.8 °F - 35.6 °F 39% 30.01 in 10.0 mi Variable 6.9 mph - N/A   Clear
2:35 PM 60.8 °F - 35.6 °F 39% 30.00 in 10.0 mi Variable 4.6 mph 11.5 mph N/A   Clear
2:55 PM 60.8 °F - 37.4 °F 42% 30.00 in 10.0 mi Variable 6.9 mph - N/A   Clear
3:15 PM 60.8 °F - 35.6 °F 39% 30.00 in 10.0 mi Variable 4.6 mph - N/A   Clear
3:35 PM 60.8 °F - 39.2 °F 45% 30.00 in 10.0 mi South 5.8 mph - N/A   Clear
3:55 PM 60.8 °F - 41.0 °F 48% 30.00 in 10.0 mi Variable 5.8 mph 11.5 mph N/A   Clear
4:15 PM 59.0 °F - 42.8 °F 55% 30.00 in 10.0 mi SSW 9.2 mph - N/A   Clear
4:35 PM 59.0 °F - 42.8 °F 55% 30.00 in 10.0 mi SSW 10.4 mph - N/A   Clear
4:55 PM 57.2 °F - 42.8 °F 59% 30.00 in 10.0 mi SW 9.2 mph - N/A   Clear
5:15 PM 57.2 °F - 41.0 °F 55% 30.00 in 10.0 mi SW 6.9 mph - N/A   Clear
5:35 PM 55.4 °F - 41.0 °F 58% 30.00 in 10.0 mi WSW 6.9 mph - N/A   Clear
5:55 PM 53.6 °F - 41.0 °F 62% 30.01 in 10.0 mi SW 4.6 mph - N/A   Clear
6:15 PM 51.8 °F - 42.8 °F 71% 30.01 in 10.0 mi Calm Calm - N/A   Clear
6:35 PM 50.0 °F - 42.8 °F 76% 30.01 in 10.0 mi WSW 5.8 mph - N/A   Clear
6:55 PM 51.8 °F - 41.0 °F 67% 30.01 in 10.0 mi Variable 3.5 mph - N/A   Clear
7:15 PM 50.0 °F - 41.0 °F 71% 30.02 in 10.0 mi Calm Calm - N/A   Clear
7:35 PM 48.2 °F - 42.8 °F 82% 30.02 in 10.0 mi WSW 4.6 mph - N/A   Clear
7:55 PM 50.0 °F - 41.0 °F 71% 30.03 in 10.0 mi WSW 4.6 mph - N/A   Clear
8:15 PM 50.0 °F - 41.0 °F 71% 30.03 in 10.0 mi WSW 3.5 mph - N/A   Clear
8:35 PM 50.0 °F - 41.0 °F 71% 30.03 in 10.0 mi West 4.6 mph - N/A   Clear
8:55 PM 50.0 °F - 41.0 °F 71% 30.03 in 10.0 mi Calm Calm - N/A   Clear
9:35 PM 48.2 °F - 41.0 °F 76% 30.04 in 10.0 mi Calm Calm - N/A   Clear
9:55 PM 48.2 °F - 41.0 °F 76% 30.05 in 10.0 mi Calm Calm - N/A   Clear
10:15 PM 46.4 °F - 41.0 °F 81% 30.05 in 10.0 mi Calm Calm - N/A   Clear
10:35 PM 48.2 °F - 39.2 °F 71% 30.05 in 10.0 mi West 3.5 mph - N/A   Clear
10:55 PM 48.2 °F - 41.0 °F 76% 30.05 in 10.0 mi Calm Calm - N/A   Clear
11:35 PM 46.4 °F - 41.0 °F 81% 30.05 in 10.0 mi Calm Calm - N/A   Clear
11:55 PM 48.2 °F - 41.0 °F 76% 30.05 in 10.0 mi Calm Calm - N/A   Clear